Probability
0 0 0 0 0 0 0 0 0 0 0 0 0 0 0 0 0 0 0 0 0 0 0 0 0 0 0 0 0 0 0 0 0 0 0 0 0 0 0 0 0 0 0
0 0 0 0 0 0 0 0 0 0 0 0 0 0 0 0 0 0 0 0 0 0 0 0 0 0 0 0 0 0 0 0 0 0 0 0 0 0 0 0 0 0 0
0 0 0 0 0 0 0 0 0 0 0 0 0 0 0 0 0 0 0 0 0 0 0 0 0 0 0 0 0 0 0 0 0 0 0 0 0 0 0 0 0 0 0
0 0 0 0 0 0 0 0 0 0 0 0 0 0 0 0 0 0 0 0 0 0 0 0 0 0 0 0 0 0 0 0 0 0 0 0 0 0 0 0 0 0 0
0 0 0 0 0 0 0 0 0 0 0 0 0 0 0 0 0 0 0 0 0 0 0 0 0 0 0 0 0 0 0 0 0 0 0 0 0 0 0 0 0 0 0
0 0 0 0 0 0 0 0 0 0 0 0 0 0 0 0 0 0 0 0 0 0 0 0 0 0 0 0 0 0 0 0 0 0 0 0 0 0 0 0 0 0 0
0 0 0 0 0 0 0 0 0 0 0 0 0 0 0 0 0 0 0 0 0 0 0 0 0 0 0 0 0 0 0 0 0 0 0 0 0 0 0 0 0 0 0
0 0 0 0 0 0 0 0 0 0 0 0 0 0 0 0 0 0 0 0 0 0 0 0 0 0 0 0 0 0 0 0 0 0 0 0 0 0 0 0 0 0 0
0 0 0 0 0 0 0 0 0 0 0 0 0 0 0 0 0 0 0 0 0 0 0 0 0 0 0 0 0 0 0 0 0 0 0 0 0 0 0 0 0 0 0
0 0 0 0 0 0 0 0 0 0 0 0 0 0 0 0 0 0 0 0 0 0 0 0 0 0 0 0 0 0 0 0 0 0 0 0 0 0 0 0 0 0 0
0 0 0 0 0 0 0 0 0 0 0 0 0 0 0 0 0 0 0 0 0 0 0 0 0 0 0 0 0 0 0 0 0 0 0 0 0 0 0 0 0 0 0
0 0 0 0 0 0 0 0 0 0 0 0 0 0 0 0 0 0 0 0 0 0 0 0 0 0 0 0 0 0 0 0 0 0 0 0 0 0 0 0 0 0 0
0 0 0 0 0 0 0 0 0 0 0 0 0 0 0 0 0 0 0 0 0 0 0 0 0 0 0 0 0 0 0 0 0 0 0 0 0 0 0 0 0 0 0
0 0 0 0 0 0 0 0 0 0 0 0 0 0 0 0 0 0 0 0 0 0 0 0 0 0 0 0 0 0 0 0 0 0 0 0 0 0 0 0 0 0 0
0 0 0 0 0 0 0 0 0 0 0 0 0 0 0 0 0 0 0 0 0 0 0 0 0 0 0 0 0 0 0 0 0 0 0 0 0 0 0 0 0 0 0
0 0 0 0 0 0 0 0 0 0 0 0 0 0 0 0 0 0 0 0 0 0 0 0 0 0 0 0 0 0 0 0 0 0 0 0 0 0 0 0 0 0 0
0 0 0 0 0 0 0 0 0 0 0 0 0 0 0 0 0 0 0 0 0 0 0 0 0 0 0 0 0 0 0 0 0 0 0 0 0 0 0 0 0 0 0
0 0 0 0 0 0 0 0 0 0 0 0 0 0 0 0 0 0 0 0 0 0 0 0 0 0 0 0 0 0 0 0 0 0 0 0 0 0 0 0 0 0 0
0 0 0 0 0 0 0 0 0 0 0 0 0 0 0 0 0 0 0 0 0 0 0 0 0 0 0 0 0 0 0 0 0 0 0 0 0 0 0 0 0 0 0
0 0 0 0 0 0 0 0 0 0 0 0 0 0 0 0 0 0 0 0 0 0 0 0 0 0 0 0 0 0 0 0 0 0 0 0 0 0 0 0 0 0 0
0 0 0 0 0 0 0 0 0 0 0 0 0 0 0 0 0 0 0 0 0 0 0 0 0 0 0 0 0 0 0 0 0 0 0 0 0 0 0 0 0 0 0
0 0 0 0 0 0 0 0 0 0 0 0 0 0 0 0 0 0 0 0 0 0 0 0 0 0 0 0 0 0 0 0 0 0 0 0 0 0 0 0 0 0 0
0 0 0 0 0 0 0 0 0 0 0 0 0 0 0 0 0 0 0 0 0 0 0 0 0 0 0 0 0 0 0 0 0 0 0 0 0 0 0 0 0 0 0
0 0 0 0 0 0 0 0 0 0 0 0 0 0 0 0 0 0 0 0 0 0 0 0 0 0 0 0 0 0 0 0 0 0 0 0 0 0 0 0 0 0 0
0 0 0 0 0 0 0 0 0 0 0 0 0 0 0 0 0 0 0 0 0 0 0 0 0 0 0 0 0 0 0 0 0 0 0 0 0 0 0 0 0 0 0
0 0 0 0 0 0 0 0 0 0 0 0 0 0 0 0 0 0 0 0 0 0 0 0 0 0 0 0 0 0 0 0 0 0 0 0 0 0 0 0 0 0 0
Wind_Speed
3 3 3 3 3 4 4 4 4 4 5 5 5 5 6 7 6 6 6 6 7 7 6 6 6 5 4 4 3 3 2 1 2 1 1 1 2 1 2 2 2 2 1
2 3 3 3 4 4 4 4 5 5 5 5 6 6 7 7 7 7 7 7 7 7 7 7 6 5 6 4 4 4 3 2 1 1 1 2 2 2 2 3 3 3 2
2 3 3 3 4 4 4 5 5 5 6 6 6 7 7 7 7 7 7 8 8 7 7 7 6 6 6 4 4 4 3 3 2 1 2 2 2 2 2 3 3 3 2
3 3 3 3 3 4 4 5 5 5 6 6 6 6 6 7 7 7 7 7 7 7 7 6 6 5 5 4 4 4 3 3 3 2 2 2 2 2 2 2 2 2 2
3 3 3 3 3 4 5 5 5 6 6 6 6 6 6 6 6 6 6 7 7 7 7 7 7 9 8 5 4 3 3 3 3 3 2 2 2 2 2 2 2 1 1
4 3 3 4 4 5 5 6 6 6 6 6 6 6 7 7 11 11 8 6 6 6 6 6 6 8 10 12 11 10 7 4 3 2 2 2 2 2 2 2 1 1 1
4 4 4 4 5 5 5 6 6 5 6 6 6 6 6 8 12 12 12 6 6 5 5 5 5 6 7 5 8 11 11 12 8 3 2 2 1 1 1 1 1 0 1
4 4 4 5 5 5 5 5 5 4 4 4 5 5 5 6 10 10 11 6 5 4 4 4 4 4 4 5 5 5 5 6 6 4 2 1 0 1 1 1 1 1 2
5 4 4 5 5 5 5 5 4 4 4 3 3 4 4 4 7 8 8 3 3 4 3 3 3 3 7 8 5 4 4 4 6 7 5 4 4 3 1 2 1 1 2
5 5 4 5 5 5 5 4 3 3 3 3 3 2 3 3 4 6 6 2 2 2 3 4 6 5 7 6 3 2 2 2 2 3 4 5 4 4 4 2 3 2 1
6 5 5 5 5 5 4 3 4 3 3 2 1 1 1 2 4 3 3 2 1 1 1 2 3 7 7 7 4 0 3 1 0 1 2 2 2 2 2 2 1 3 3
6 6 5 5 4 4 4 4 3 3 3 1 0 1 2 2 3 3 2 1 2 1 1 1 3 7 7 7 4 4 5 3 1 1 1 1 2 2 2 2 3 3 5
6 6 5 5 4 4 5 5 3 3 2 2 2 2 2 2 2 4 3 3 2 1 2 4 6 7 6 4 5 5 3 1 1 1 2 2 2 3 3 3 3 3 5
7 6 5 5 5 4 4 4 4 4 3 3 3 3 2 2 2 2 2 2 3 2 2 3 5 6 4 3 3 3 2 1 1 2 2 2 2 2 2 2 2 3 4
7 7 6 6 6 5 5 4 5 5 5 5 4 3 3 3 4 5 4 3 3 4 2 1 0 1 2 2 2 2 2 2 2 2 2 3 3 3 3 2 2 2 3
8 7 6 5 5 5 4 3 7 8 9 10 8 6 5 6 6 6 6 6 6 7 2 1 1 2 2 2 2 2 2 2 2 2 2 3 3 4 4 3 3 4 6
10 8 6 6 6 6 5 5 4 5 8 8 9 9 8 8 8 7 7 7 7 6 1 2 2 3 3 3 3 3 3 3 2 3 3 4 4 4 4 5 5 5 6
10 10 9 7 7 6 6 6 5 4 3 3 6 9 10 9 9 8 8 6 3 2 2 3 3 4 3 3 3 3 4 3 3 4 4 4 4 4 5 5 5 6 7
10 7 7 6 6 6 6 5 5 5 4 4 3 4 7 8 9 9 7 3 3 3 3 4 4 4 4 4 4 4 4 4 4 4 4 5 5 5 6 6 6 10 10
8 11 10 7 7 6 6 6 6 6 5 5 5 4 3 3 3 3 3 3 4 4 4 4 4 4 4 4 4 4 4 4 5 5 5 5 5 5 7 8 7 8 8
6 8 13 8 7 7 7 7 6 6 6 6 5 5 8 5 5 5 4 4 5 5 5 4 4 4 4 4 4 5 6 5 5 5 6 6 5 6 7 7 8 8 9
5 5 7 7 6 6 6 6 6 6 6 6 4 4 9 5 4 4 5 5 5 5 4 4 4 4 5 5 5 5 5 6 6 6 6 6 6 7 8 8 8 8 9
5 6 6 6 6 8 7 6 6 6 6 5 5 4 4 4 5 5 5 5 4 4 4 4 5 5 5 5 5 6 7 7 7 6 7 7 7 7 8 9 10 11 11
4 5 6 5 5 6 6 6 6 6 6 5 5 5 5 5 5 5 5 4 4 4 4 4 5 7 9 7 5 6 7 8 7 7 10 10 9 9 9 10 11 13 13
4 4 5 5 5 5 6 6 6 6 6 6 5 5 5 5 5 5 4 4 5 5 6 6 5 6 9 10 9 8 12 17 16 11 10 10 11 12 12 13 12 13 14
3 4 4 4 4 5 5 5 5 6 6 5 5 5 5 5 5 5 4 4 4 5 5 5 7 8 9 8 10 13 16 18 19 19 13 10 11 11 12 12 15 15 16
Wind_Direction
61 52 42 25 23 33 40 34 32 33 33 40 44 49 46 41 39 50 51 50 61 55 48 56 51 40 41 29 28 29 19 344 279 357 45 357 348 352 26 62 66 77 41
74 64 51 38 39 44 45 41 45 47 43 48 53 56 53 50 49 55 59 56 60 58 50 53 47 47 46 35 37 38 28 13 349 332 19 11 13 19 47 68 66 71 59
94 81 64 53 52 53 52 53 56 58 55 54 58 61 59 58 59 59 64 65 63 60 55 55 48 51 49 38 40 36 24 20 22 50 37 27 24 31 51 57 64 50 56
116 104 86 73 71 71 70 68 66 65 63 62 64 69 69 67 64 65 69 70 67 61 53 51 49 53 57 48 44 36 32 34 35 52 48 36 31 26 49 53 58 43 34
137 128 113 100 92 89 83 78 73 71 69 65 65 66 70 72 71 71 69 70 67 62 51 42 43 48 58 66 64 46 42 43 42 46 40 32 27 25 32 28 52 29 26
150 143 133 120 107 100 95 88 82 75 69 64 61 62 65 70 77 80 79 67 64 59 50 36 35 40 42 46 52 51 51 53 45 46 36 38 24 21 20 31 47 31 341
148 144 138 129 118 109 104 96 89 82 75 67 60 59 62 71 76 78 79 74 66 58 52 41 36 33 45 40 42 42 37 41 50 72 58 34 13 360 61 34 35 35 268
148 146 142 136 126 116 109 102 95 88 79 72 61 54 53 65 77 79 82 73 66 54 48 44 38 15 37 55 47 38 29 28 43 56 78 22 289 234 186 172 193 277 285
156 153 148 141 134 128 120 113 107 101 87 76 67 58 50 40 71 83 86 75 63 41 25 28 38 14 19 43 57 36 20 4 17 29 27 10 355 331 229 130 111 29 312
161 153 145 142 139 133 128 122 111 110 110 100 75 55 43 10 51 85 99 90 65 31 13 8 8 6 6 25 82 45 355 324 342 355 0 358 1 358 22 133 167 167 226
152 148 146 142 138 135 127 118 122 121 120 108 74 12 353 347 2 31 100 125 121 53 4 347 332 344 351 355 14 277 292 327 59 342 329 334 352 6 15 19 155 170 188
151 152 152 149 151 142 135 133 136 145 150 163 237 295 291 308 322 322 350 62 137 156 294 291 300 325 338 347 350 326 352 44 39 336 329 330 330 318 311 309 288 246 225
160 163 161 159 158 152 157 163 166 175 184 202 219 247 268 266 289 304 326 343 354 189 254 299 322 337 352 352 331 345 26 34 340 318 306 289 270 267 284 299 295 277 265
172 175 173 175 179 177 181 183 185 191 199 212 219 233 250 264 263 259 276 304 311 312 301 310 331 342 352 342 348 5 4 307 290 274 279 281 285 283 284 283 290 307 303
180 182 184 189 189 193 200 202 200 207 199 201 211 211 215 244 249 238 222 221 226 242 251 190 341 335 333 329 323 317 316 324 326 300 290 294 294 293 289 284 276 284 274
187 191 192 190 190 193 198 222 237 227 233 233 220 208 221 236 255 260 265 270 278 283 288 179 255 268 275 284 293 299 296 289 281 276 277 277 283 287 288 282 264 264 271
194 192 190 191 192 193 194 200 221 237 239 239 235 233 234 242 251 258 264 271 276 286 240 227 245 253 257 261 260 258 262 265 265 267 265 266 267 271 273 275 271 267 268
197 196 193 194 193 194 197 199 198 201 218 242 245 247 248 249 251 254 259 269 271 256 219 234 242 244 245 248 251 252 259 267 262 260 259 258 256 259 265 266 264 261 268
197 196 194 192 192 195 195 194 198 205 212 221 228 252 249 252 255 255 255 218 224 239 238 238 238 239 242 244 246 248 251 257 259 258 258 256 253 251 259 262 264 271 273
202 200 189 189 190 192 193 197 201 205 211 217 223 224 211 211 224 240 230 215 226 237 239 240 241 239 239 241 244 247 251 254 257 254 255 255 252 250 259 264 264 265 265
194 196 195 193 195 195 195 199 201 201 208 216 222 218 209 206 220 225 225 224 227 234 236 237 239 240 239 239 240 244 249 254 253 253 256 256 253 256 257 259 262 263 266
186 189 192 197 196 196 198 198 197 202 209 215 218 225 236 223 214 222 226 230 227 227 226 228 234 234 232 232 234 239 246 253 253 250 252 253 252 256 258 260 262 264 265
184 189 194 198 197 204 203 198 200 204 210 211 208 209 217 221 222 225 229 230 228 230 228 227 236 245 241 235 228 228 241 250 250 248 255 260 258 258 259 261 263 265 267
187 193 199 199 197 201 202 201 201 205 209 210 210 213 218 221 226 230 228 227 228 232 232 232 238 246 251 251 243 236 239 249 251 251 248 253 258 260 260 261 263 264 265
190 197 202 203 202 204 206 205 204 205 209 211 211 215 220 221 226 230 228 228 231 237 242 240 242 248 254 255 254 253 261 267 267 261 250 249 253 254 258 261 264 266 267
199 204 208 207 207 207 207 209 208 206 210 214 214 215 218 222 228 230 229 229 233 239 245 246 245 250 255 260 263 266 273 276 277 278 276 270 268 267 266 268 268 268 270